map of DLE home
Great Circle Mapper logo
DLE - Airport
Location
City:  Dole, France
Name:Tavaux
ICAO / IATA:LFGJ / DLE

Details
Type:Airport (Aerodrome, Airfield)
Use:Public/Civil
Latitude:4702'34"N (47.042778)
Longitude:526'06"E (5.435000)
Elevation:645 ft (197 m)
Variation:1.1E (WMM2010 magnetic declination)
Runways:2
Longest:7316 × 148 ft (2230 × 45 m), paved

Time
Time Zone:UTC+1 (DST+2)
Local Time:

Weather
METAR:LFGJ 230400Z AUTO 07006KT 9999 NSC 06/06 Q1019

Related Locations
Nearby:
Farthest:CHT: 12190 mi / 19618 km
Waitangi [Tuuta], Chatham Islands, NZ

Find:

   beyond  
but within

Other Information
Maps:
NOTAMs:
Links:
Sources:

  
flag of France   

Sectional Chart

Flight Planning
at skyvector.com

Satellite Image

Google Maps Satellite View

 

Copyright © 2004-2014 Karl L. Swartz. All rights reserved.
The Great Circle Mapper name and logo are trademarks of the Great Circle Mapper.
All other trademarks mentioned herein belong to their respective owners.
Please see credits for attibutions and further copyright information.

  Follow gcmap on Facebook Follow gcmap on Twitter

hCard Microformat

Geo Microformat